Regional Weather Roundup
Issued by NWS Newport/Morehead, NC

Current Version | Previous Version | Graphics & Text | Print | Product List | Glossary Off
Versions: 1 2 3 4 5 6 7 8 9 10 11 12 13 14 15 16 17 18 19 20 21 22 23 24 25 26 27 28 29 30 31 32 33 34 35 36 37 38 39 40 41 42 43 44 45 46 47 48 49 50
000 ASUS42 KMHX 210013 RWRMHX WEATHER ROUNDUP FOR EASTERN NORTH CAROLINA NATIONAL WEATHER SERVICE NEWPORT/MOREHEAD CITY NC 700 PM EST TUE FEB 20 2018 NOTE: "FAIR" INDICATES FEW OR NO CLOUDS BELOW 12,000 FEET WITH NO SIGNIFICANT WEATHER AND/OR OBSTRUCTIONS TO VISIBILITY NCZ015>017-031-032-045>047-102-103-210100- NORTH COAST CITY SKY/WX TMP DP RH WIND PRES REMARKS EDENTON FAIR 68 64 85 S10 30.43S ELIZABETH CITY FAIR 70 66 87 S12G21 30.42S KITTY HAWK FAIR N/A N/A N/A S6 30.44S MANTEO FAIR 60 60 97 S10 30.46S $$ NCZ045>047-081-094-103-104-210100- CENTRAL COAST CITY SKY/WX TMP DP RH WIND PRES REMARKS FRISCO CLOUDY 66 64 93 S8 30.48R $$ NCZ095-097-098-100-101-210100- SOUTHERN COAST CITY SKY/WX TMP DP RH WIND PRES REMARKS BEAUFORT CLOUDY 68 64 87 S7 30.47R CEDAR ISLAND NOT AVBL JACKSONVILLE CLOUDY 69 66 90 S6 30.45R PINEY ISLAND NOT AVBL WILMINGTON FAIR 69 66 90 S7 30.45R $$ NCZ011>013-027>030-043-044-078>080-089-090>093-098-210100- COASTAL PLAIN CITY SKY/WX TMP DP RH WIND PRES REMARKS AHOSKIE FOG 61 61 100 CALM 30.42R VSB 1/2 CLINTON FAIR 71 63 75 S5 30.43R ELIZABETHTOWN NOT AVBL GOLDSBORO FAIR 72 64 73 S8 30.40R GREENVILLE FAIR 72 63 73 S12 30.42S HAVELOCK NOT AVBL KENANSVILLE FAIR 70 64 83 S6 30.44R KINSTON FAIR 72 63 73 S10 30.44R NEW BERN FAIR 68 65 90 S7 30.46R RICHLANDS FAIR 68 65 90 S6 30.45R ROCKY MOUNT MOCLDY 67 61 81 S5 30.41R WASHINGTON FAIR 70 64 80 S6 30.44R WHITEVILLE FAIR 70 63 79 SE5 30.42S $$ AMZ130-135-150-152-154-156-158-170-250-252-270-ANZ085-086-088-633-658-670-210100- MARINE OBSERVATIONS STATION/POSITION TIME TEMP WIND PRES WAVE SWELL AIR SEA DIR/SP/G HT/PER HT/PER (UTC) (F) (DEG/KT/KT) (MB) (FT/S) (FT/S) CHESAPEAKE LIGHT NOT AVBL 64 E VA BEACH 2350 57 51 180/ 14/ 14 1031.7 4/12 3/12 DUCK 2342 68 46 170/ 18/ 22 1030.1 2 E DUCK 0000 45 N/A 3/12 2/12 OREGON INLET 2348 170/ 8/ 10 N/A 13E OREGON INLT 2348 47 N/A 4/11 3/11 HATTERAS CG 2342 65 58 170/ 4/ 8 1031.9 DIAMOND BUOY 2350 180/ 16/ 17 1032.3 4/12 3/12 CAPE LOOKOUT NOT AVBL BEAUFORT LAB 2342 66 58 170/ 7/ 9 1031.8 30 SE NEW RVR IN 2308 71 70 170/ 10/ 14 1031.4 30 SE NEW RVR IN 0000 70 N/A 4/12 2/12 27 SE WRIGHTSVLE 2308 70 69 170/ 10/ 14 1031.2 5 SE WRIGHTSVLE 2308 62 57 170/ 4/ 6 1030.7 225 S CAPE HAT 2350 72 74 110/ 12/ 16 1032.5 5/ 6 3/ 6 41 SE CHARLESTON 2350 71 130/ 6/ 8 1030.1 4/ 6 3/ 6 $$

USA.gov is the U.S. government's official web portal to all federal, state and local government web resources and services.